Weather History for Beatrice, NE

Change the Weather History Date:

Saturday, October 13, 2012

  Actual Average Record
Temperature  
Mean Temperature 64 °F -  
Max Temperature 75 °F 67 °F 92 °F (1975)
Min Temperature 53 °F 45 °F 24 °F (2006)
Degree Days  
Heating Degree Days 1    
Growing Degree Days 14 (Base 50)    
Moisture  
Dew Point 58 °F    
Average Humidity 78    
Maximum Humidity 88    
Minimum Humidity 59    
Precipitation  
Precipitation 0.70 in - - ()
Sea Level Pressure  
Sea Level Pressure 29.75 in    
Wind  
Wind Speed 9 mph (South)    
Max Wind Speed 20 mph    
Max Gust Speed 29 mph    
Visibility 8 miles    
Events Rain , Thunderstorm    
Averages and records for this station are not official NWS values.
T = Trace of Precipitation, MM = Missing Value Source: NWS Daily Summary

Daily Weather History Graph

Daily Weather History Graph

Search for Another Location

Airport:

Trip Planner

Search our weather history database for the weather conditions in past years. The results will help you decide how hot, cold, wet, or windy it might be!

Date:

Astronomy

Oct. 13, 2012 Rise Set
Actual Time 7:36 AM CDT 6:49 PM CDT
Civil Twilight 7:08 AM CDT 7:16 PM CDT
Nautical Twilight 6:37 AM CDT 7:48 PM CDT
Astronomical Twilight 6:05 AM CDT 8:19 PM CDT
Moon 5:27 AM CDT (10/13) 5:33 PM CDT (10/13)
Length of Visible Light 12h 07m
Length of Day
11h 13m
Waning Crescent, 5% of the Moon is Illuminated
Oct 13
Waning Crescent
Oct 15
New
Oct 21
First Quarter
Oct 29
Full
Nov 6
Last Quarter

Hourly Weather History & Observations

Time (CDT) Temp. Dew Point Humidity Pressure Visibility Wind Dir Wind Speed Gust Speed Precip Events Conditions
12:35 AM 53.6 °F 50.0 °F 88% 29.97 in 7.0 mi SSE 9.2 mph - N/A   Overcast
12:55 AM 54.5 °F 49.5 °F 83% 29.95 in 7.0 mi SSE 8.1 mph - N/A   Overcast
1:15 AM 54.7 °F 50.0 °F 84% 29.93 in 7.0 mi SSE 8.1 mph - N/A   Overcast
1:35 AM 55.4 °F 50.9 °F 85% 29.93 in 7.0 mi South 9.2 mph - N/A Thunderstorm Overcast
1:55 AM 56.1 °F 51.8 °F 85% 29.91 in 3.0 mi SSE 9.2 mph - 0.02 in Rain , Thunderstorm Heavy Thunderstorms and Rain
2:15 AM 56.8 °F 53.1 °F 87% 29.91 in 5.0 mi SSE 9.2 mph - 0.01 in Thunderstorm Overcast
2:35 AM 57.9 °F 54.3 °F 88% 29.90 in 5.0 mi SSE 9.2 mph - 0.01 in Thunderstorm Overcast
2:55 AM 58.5 °F 54.9 °F 88% 29.89 in 3.0 mi SSE 9.2 mph - 0.01 in Thunderstorm Overcast
3:15 AM 59.0 °F 55.4 °F 88% 29.88 in 2.5 mi SSE 10.4 mph - N/A Thunderstorm Overcast
3:35 AM 60.1 °F 56.7 °F 88% 29.88 in 2.5 mi South 12.7 mph 18.4 mph N/A   Overcast
3:55 AM 60.8 °F 57.2 °F 88% 29.87 in 2.5 mi South 12.7 mph 20.7 mph N/A Thunderstorm Overcast
4:15 AM 61.2 °F 57.7 °F 88% 29.91 in 2.5 mi West 6.9 mph 24.2 mph 0.09 in Rain , Thunderstorm Thunderstorms and Rain
4:35 AM 61.3 °F 57.7 °F 88% 29.90 in 3.0 mi WSW 6.9 mph - 0.23 in Rain , Thunderstorm Thunderstorms and Rain
4:55 AM 61.2 °F 57.6 °F 88% 29.84 in 7.0 mi South 3.5 mph - 0.25 in Rain , Thunderstorm Light Thunderstorms and Rain
5:15 AM 60.8 °F 57.2 °F 88% 29.84 in 7.0 mi SSE 8.1 mph - N/A Rain Light Rain
5:35 AM 60.8 °F 57.4 °F 88% 29.83 in 7.0 mi SSE 6.9 mph - N/A Rain Light Rain
5:55 AM 61.0 °F 57.6 °F 88% 29.80 in 7.0 mi SSE 8.1 mph - 0.01 in Rain Light Rain
6:15 AM 61.2 °F 57.6 °F 88% 29.80 in 10.0 mi SSE 12.7 mph - N/A   Scattered Clouds
6:35 AM 61.7 °F 57.7 °F 87% 29.81 in 10.0 mi SW 8.1 mph - N/A   Clear
6:55 AM 61.7 °F 57.6 °F 86% 29.82 in 10.0 mi SSW 5.8 mph - N/A   Clear
7:15 AM 61.7 °F 57.6 °F 86% 29.81 in 10.0 mi South 5.8 mph - N/A   Scattered Clouds
7:35 AM 61.7 °F 57.7 °F 87% 29.84 in 10.0 mi SW 5.8 mph - 0.01 in Rain Light Rain
7:55 AM 63.5 °F 58.5 °F 84% 29.81 in 10.0 mi South 17.3 mph - 0.02 in Rain Light Rain
8:15 AM 63.5 °F 58.6 °F 84% 29.77 in 7.0 mi South 19.6 mph 27.6 mph 0.02 in Rain Light Rain
8:35 AM 62.6 °F 59.0 °F 88% 29.80 in 10.0 mi SW 12.7 mph - N/A Rain Light Rain
8:55 AM 62.8 °F 58.6 °F 86% 29.80 in 10.0 mi WSW 6.9 mph - 0.03 in   Mostly Cloudy
9:15 AM 64.4 °F 59.0 °F 83% 29.78 in 10.0 mi SW 5.8 mph - N/A   Scattered Clouds
9:35 AM 63.5 °F 59.0 °F 85% 29.77 in 10.0 mi WSW 5.8 mph - N/A   Clear
9:55 AM 63.5 °F 59.0 °F 85% 29.75 in 10.0 mi WSW 4.6 mph - N/A   Clear
10:15 AM 63.9 °F 59.4 °F 85% 29.79 in 10.0 mi SSW 9.2 mph - N/A   Scattered Clouds
10:35 AM 64.8 °F 59.9 °F 84% 29.80 in 10.0 mi SSW 11.5 mph - N/A   Scattered Clouds
10:55 AM 67.1 °F 59.7 °F 77% 29.78 in 10.0 mi South 10.4 mph - N/A   Clear
11:15 AM 68.2 °F 59.2 °F 73% 29.78 in 10.0 mi South 12.7 mph - N/A   Scattered Clouds
11:35 AM 70.7 °F 60.3 °F 69% 29.77 in 10.0 mi SSW 12.7 mph 19.6 mph N/A   Mostly Cloudy
11:55 AM 70.7 °F 59.7 °F 68% 29.77 in 10.0 mi South 17.3 mph 21.9 mph N/A   Mostly Cloudy
12:15 PM 69.8 °F 59.0 °F 68% 29.76 in 10.0 mi SSW 16.1 mph - N/A   Overcast
12:35 PM 69.8 °F 59.4 °F 69% 29.75 in 10.0 mi South 13.8 mph 17.3 mph N/A   Overcast
12:55 PM 70.0 °F 59.7 °F 70% 29.74 in 10.0 mi South 12.7 mph - N/A   Overcast
1:15 PM 70.7 °F 60.8 °F 71% 29.73 in 10.0 mi SSW 13.8 mph 17.3 mph N/A   Overcast
1:35 PM 71.2 °F 61.2 °F 70% 29.72 in 10.0 mi South 13.8 mph - N/A   Overcast
1:55 PM 73.4 °F 62.1 °F 68% 29.71 in 10.0 mi South 10.4 mph - N/A   Overcast
2:15 PM 75.4 °F 62.1 °F 63% 29.70 in 10.0 mi SSW 19.6 mph 28.8 mph N/A   Overcast
2:35 PM 74.7 °F 62.1 °F 65% 29.68 in 10.0 mi SSW 12.7 mph 24.2 mph N/A   Overcast
2:55 PM 75.2 °F 61.7 °F 63% 29.67 in 10.0 mi South 13.8 mph 21.9 mph N/A   Overcast
3:15 PM 74.3 °F 62.1 °F 65% 29.66 in 10.0 mi South 13.8 mph 21.9 mph N/A   Overcast
3:35 PM 74.8 °F 62.4 °F 65% 29.66 in 10.0 mi SSW 12.7 mph 16.1 mph N/A Thunderstorm Overcast
3:55 PM 75.0 °F 62.2 °F 64% 29.66 in 10.0 mi SW 15.0 mph - N/A   Overcast
4:15 PM 73.9 °F 62.4 °F 67% 29.66 in 10.0 mi SSW 9.2 mph - N/A   Overcast
4:35 PM 73.9 °F 62.6 °F 68% 29.66 in 10.0 mi SSW 8.1 mph - N/A   Overcast
4:55 PM 74.5 °F 63.3 °F 68% 29.66 in 10.0 mi South 8.1 mph - N/A   Overcast
5:15 PM 73.8 °F 63.9 °F 71% 29.64 in 10.0 mi South 10.4 mph - N/A   Mostly Cloudy
5:35 PM 73.9 °F 64.4 °F 72% 29.64 in 10.0 mi South 9.2 mph - N/A   Scattered Clouds
5:55 PM 71.8 °F 64.4 °F 77% 29.63 in 10.0 mi SSE 5.8 mph - N/A   Clear
6:15 PM 71.1 °F 64.4 °F 79% 29.62 in 10.0 mi SE 4.6 mph - N/A   Clear
6:35 PM 70.9 °F 64.6 °F 80% 29.62 in 10.0 mi SE 3.5 mph - N/A Thunderstorm Scattered Clouds
6:55 PM 69.8 °F 64.4 °F 83% 29.61 in 10.0 mi Calm Calm - N/A   Mostly Cloudy
7:15 PM 69.8 °F 64.4 °F 83% 29.65 in 7.0 mi South 3.5 mph - N/A Rain , Thunderstorm Light Thunderstorms and Rain
7:35 PM 68.9 °F 64.8 °F 87% 29.65 in 2.5 mi South 3.5 mph - 0.10 in Rain , Thunderstorm Heavy Thunderstorms and Rain
7:55 PM 59.4 °F 53.8 °F 82% 29.69 in 3.0 mi NNW 17.3 mph 28.8 mph 0.32 in Rain , Thunderstorm Thunderstorms and Rain
8:15 PM 60.8 °F 53.6 °F 77% 29.64 in 10.0 mi NNE 12.7 mph - N/A Rain Light Rain
8:35 PM 60.6 °F 52.2 °F 74% 29.59 in 10.0 mi NE 12.7 mph - 0.04 in   Mostly Cloudy
8:55 PM 64.4 °F 50.0 °F 59% 29.58 in 10.0 mi ENE 10.4 mph - N/A   Mostly Cloudy
9:15 PM 63.5 °F 50.2 °F 62% 29.59 in 10.0 mi ENE 10.4 mph 19.6 mph N/A   Scattered Clouds
9:35 PM 62.4 °F 50.7 °F 66% 29.61 in 10.0 mi SE 4.6 mph - N/A   Clear
9:55 PM 61.5 °F 50.0 °F 66% 29.61 in 10.0 mi ESE 3.5 mph - N/A   Clear
10:15 PM 60.6 °F 49.8 °F 68% 29.61 in 10.0 mi South 4.6 mph - N/A   Clear
10:35 PM 60.8 °F 50.0 °F 68% 29.61 in 10.0 mi Calm Calm - N/A   Clear
10:55 PM 57.7 °F 50.7 °F 77% 29.62 in 10.0 mi NW 8.1 mph - N/A   Clear
11:35 PM 56.3 °F 50.2 °F 80% 29.62 in 10.0 mi Calm Calm - N/A   Clear
11:55 PM 53.6 °F 50.0 °F 88% 29.64 in 10.0 mi SW 5.8 mph - N/A   Clear